TimePDT,TemperatureF,Dew PointF,Humidity,Sea Level PressureIn,VisibilityMPH,Wind Direction,Wind SpeedMPH,Gust SpeedMPH,PrecipitationIn,Events,Conditions,WindDirDegrees,DateUTC
12:15 AM,50.0,41.0,71,30.03,10.0,SSE,5.8,-,N/A,,Clear,150,2013-05-24 07:15:00
12:35 AM,50.0,41.0,71,30.03,10.0,SSE,4.6,-,N/A,,Clear,160,2013-05-24 07:35:00
12:55 AM,50.0,41.0,71,30.03,10.0,Calm,Calm,-,N/A,,Clear,0,2013-05-24 07:55:00
1:15 AM,48.2,41.0,76,30.02,10.0,Calm,Calm,-,N/A,,Partly Cloudy,0,2013-05-24 08:15:00
1:35 AM,48.2,41.0,76,30.02,10.0,Calm,Calm,-,N/A,,Partly Cloudy,0,2013-05-24 08:35:00
1:55 AM,46.4,41.0,81,30.02,10.0,Calm,Calm,-,N/A,,Partly Cloudy,0,2013-05-24 08:55:00
2:15 AM,46.4,39.2,76,30.02,10.0,Calm,Calm,-,N/A,,Scattered Clouds,0,2013-05-24 09:15:00
2:35 AM,46.4,39.2,76,30.02,10.0,Calm,Calm,-,N/A,,Scattered Clouds,0,2013-05-24 09:35:00
2:55 AM,44.6,39.2,81,30.01,10.0,North,3.5,-,N/A,,Partly Cloudy,10,2013-05-24 09:55:00
3:15 AM,44.6,37.4,76,30.01,10.0,North,3.5,-,N/A,,Partly Cloudy,350,2013-05-24 10:15:00
3:35 AM,44.6,39.2,81,30.01,10.0,North,3.5,-,N/A,,Clear,350,2013-05-24 10:35:00
3:55 AM,44.6,39.2,81,30.00,10.0,Calm,Calm,-,N/A,,Clear,0,2013-05-24 10:55:00
4:15 AM,44.6,39.2,81,30.01,10.0,Calm,Calm,-,N/A,,Clear,0,2013-05-24 11:15:00
4:35 AM,44.6,37.4,76,30.01,10.0,East,3.5,-,N/A,,Clear,100,2013-05-24 11:35:00
4:55 AM,42.8,39.2,87,30.01,10.0,Calm,Calm,-,N/A,,Clear,0,2013-05-24 11:55:00
5:15 AM,41.0,37.4,87,30.02,10.0,Calm,Calm,-,N/A,,Clear,0,2013-05-24 12:15:00
5:35 AM,42.8,37.4,81,30.02,10.0,North,3.5,-,N/A,,Clear,10,2013-05-24 12:35:00
5:55 AM,41.0,37.4,87,30.03,10.0,Calm,Calm,-,N/A,,Clear,0,2013-05-24 12:55:00
6:15 AM,41.0,37.4,87,30.03,10.0,Calm,Calm,-,N/A,,Clear,0,2013-05-24 13:15:00
6:35 AM,42.8,37.4,81,30.04,10.0,Calm,Calm,-,N/A,,Clear,0,2013-05-24 13:35:00
6:55 AM,44.6,37.4,76,30.04,10.0,Calm,Calm,-,N/A,,Clear,0,2013-05-24 13:55:00
7:15 AM,46.4,39.2,76,30.04,10.0,SSE,3.5,-,N/A,,Clear,150,2013-05-24 14:15:00
7:35 AM,46.4,39.2,76,30.04,9.0,Calm,Calm,-,N/A,,Clear,0,2013-05-24 14:35:00
7:55 AM,48.2,41.0,76,30.04,10.0,SSE,4.6,-,N/A,,Clear,160,2013-05-24 14:55:00
8:15 AM,50.0,41.0,71,30.04,10.0,SSE,5.8,-,N/A,,Clear,160,2013-05-24 15:15:00
8:35 AM,50.0,41.0,71,30.04,10.0,SSE,5.8,-,N/A,,Clear,150,2013-05-24 15:35:00
8:55 AM,51.8,41.0,67,30.04,9.0,SE,5.8,-,N/A,,Clear,140,2013-05-24 15:55:00
9:15 AM,53.6,42.8,67,30.03,10.0,SSE,5.8,-,N/A,,Clear,160,2013-05-24 16:15:00
9:35 AM,55.4,42.8,63,30.03,10.0,SSE,6.9,-,N/A,,Clear,160,2013-05-24 16:35:00
9:55 AM,57.2,41.0,55,30.03,10.0,SE,5.8,-,N/A,,Clear,130,2013-05-24 16:55:00
10:15 AM,59.0,41.0,51,30.03,10.0,SSE,5.8,-,N/A,,Clear,150,2013-05-24 17:15:00
10:35 AM,59.0,41.0,51,30.02,10.0,South,3.5,-,N/A,,Clear,180,2013-05-24 17:35:00
10:55 AM,62.6,41.0,45,30.03,10.0,SW,4.6,-,N/A,,Clear,220,2013-05-24 17:55:00
11:15 AM,64.4,41.0,42,30.02,10.0,SE,5.8,-,N/A,,Clear,130,2013-05-24 18:15:00
11:35 AM,64.4,41.0,42,30.02,10.0,Calm,Calm,-,N/A,,Clear,0,2013-05-24 18:35:00
11:55 AM,66.2,41.0,40,30.01,10.0,Calm,Calm,-,N/A,,Clear,0,2013-05-24 18:55:00
12:15 PM,68.0,41.0,37,30.00,10.0,Calm,Calm,-,N/A,,Clear,0,2013-05-24 19:15:00
12:35 PM,69.8,39.2,33,29.99,10.0,SW,6.9,-,N/A,,Clear,220,2013-05-24 19:35:00
12:55 PM,71.6,37.4,29,29.99,10.0,SSW,9.2,-,N/A,,Clear,210,2013-05-24 19:55:00
1:15 PM,71.6,39.2,31,29.99,10.0,SW,9.2,17.3,N/A,,Clear,220,2013-05-24 20:15:00
1:35 PM,71.6,39.2,31,29.98,10.0,SSW,13.8,17.3,N/A,,Clear,200,2013-05-24 20:35:00
1:55 PM,71.6,37.4,29,29.98,10.0,WSW,9.2,19.6,N/A,,Clear,240,2013-05-24 20:55:00
2:15 PM,71.6,37.4,29,29.98,10.0,SSW,15.0,18.4,N/A,,Clear,210,2013-05-24 21:15:00
2:35 PM,71.6,37.4,29,29.98,10.0,SSW,11.5,16.1,N/A,,Clear,200,2013-05-24 21:35:00
2:55 PM,73.4,35.6,25,29.98,10.0,SSW,12.7,18.4,N/A,,Clear,210,2013-05-24 21:55:00
3:15 PM,73.4,35.6,25,29.97,10.0,SSW,13.8,-,N/A,,Clear,200,2013-05-24 22:15:00
3:35 PM,73.4,32.0,22,29.97,10.0,SSW,12.7,-,N/A,,Clear,210,2013-05-24 22:35:00
3:55 PM,73.4,32.0,22,29.97,10.0,SW,11.5,19.6,N/A,,Clear,220,2013-05-24 22:55:00
4:15 PM,71.6,32.0,23,29.97,10.0,SW,15.0,-,N/A,,Clear,220,2013-05-24 23:15:00
4:35 PM,71.6,32.0,23,29.97,10.0,SW,15.0,18.4,N/A,,Clear,220,2013-05-24 23:35:00
4:55 PM,71.6,32.0,23,29.97,10.0,SSW,12.7,18.4,N/A,,Clear,200,2013-05-24 23:55:00
5:15 PM,71.6,30.2,22,29.97,10.0,SSW,12.7,-,N/A,,Clear,210,2013-05-25 00:15:00
5:35 PM,69.8,32.0,25,29.97,10.0,SW,15.0,-,N/A,,Clear,220,2013-05-25 00:35:00
5:55 PM,69.8,30.2,23,29.97,10.0,WSW,6.9,-,N/A,,Clear,240,2013-05-25 00:55:00
6:15 PM,68.0,41.0,37,29.97,10.0,NNW,12.7,18.4,N/A,,Clear,330,2013-05-25 01:15:00
6:35 PM,66.2,42.8,43,29.97,10.0,NNW,12.7,16.1,N/A,,Clear,340,2013-05-25 01:35:00
6:55 PM,66.2,42.8,43,29.97,10.0,NNW,13.8,18.4,N/A,,Clear,330,2013-05-25 01:55:00
7:15 PM,64.4,41.0,42,29.98,10.0,NW,13.8,19.6,N/A,,Clear,310,2013-05-25 02:15:00
7:35 PM,62.6,42.8,48,29.99,10.0,NW,16.1,23.0,N/A,,Clear,320,2013-05-25 02:35:00
7:55 PM,60.8,41.0,48,29.99,10.0,NNW,15.0,20.7,N/A,,Clear,330,2013-05-25 02:55:00
8:15 PM,59.0,41.0,51,29.99,10.0,NW,11.5,20.7,N/A,,Clear,310,2013-05-25 03:15:00
8:35 PM,57.2,39.2,51,30.00,10.0,NW,10.4,18.4,N/A,,Clear,310,2013-05-25 03:35:00
8:55 PM,57.2,39.2,51,30.00,10.0,NW,11.5,-,N/A,,Clear,310,2013-05-25 03:55:00
9:15 PM,57.2,39.2,51,30.01,10.0,NW,10.4,17.3,N/A,,Clear,310,2013-05-25 04:15:00
9:35 PM,55.4,39.2,54,30.02,10.0,NW,10.4,-,N/A,,Scattered Clouds,310,2013-05-25 04:35:00
9:55 PM,55.4,39.2,54,30.02,10.0,NW,8.1,-,N/A,,Scattered Clouds,310,2013-05-25 04:55:00
10:15 PM,55.4,39.2,54,30.03,10.0,WNW,6.9,-,N/A,,Scattered Clouds,300,2013-05-25 05:15:00
10:35 PM,53.6,39.2,58,30.03,10.0,NW,6.9,-,N/A,,Mostly Cloudy,310,2013-05-25 05:35:00
10:55 PM,53.6,39.2,58,30.04,10.0,WNW,3.5,-,N/A,,Mostly Cloudy,290,2013-05-25 05:55:00
11:15 PM,53.6,39.2,58,30.04,10.0,Calm,Calm,-,N/A,,Scattered Clouds,0,2013-05-25 06:15:00
11:35 PM,53.6,39.2,58,30.03,10.0,Calm,Calm,-,N/A,,Partly Cloudy,0,2013-05-25 06:35:00
11:55 PM,50.0,41.0,71,30.03,10.0,Calm,Calm,-,N/A,,Partly Cloudy,0,2013-05-25 06:55:00